Stations météo

réclame
Mon MeteoGroup
Fair Isle, Grande-Bretagne (3008): Température de l'air & dewpoint: 14.08.2018 00:00:00 - 20.08.2018 00:00:00 (BST)Fair Isle, Grande-Bretagne (3008): Température de l'air -20cm & Température de l'air -100cm: 14.08.2018 00:00:00 - 20.08.2018 00:00:00 (BST)Fair Isle, Grande-Bretagne (3008): Vitesse du vent & gusts: 14.08.2018 00:00:00 - 20.08.2018 00:00:00 (BST)Fair Isle, Grande-Bretagne (3008): Direction du vent: 14.08.2018 00:00:00 - 20.08.2018 00:00:00 (BST)Fair Isle, Grande-Bretagne (3008): reduced air pressure: 14.08.2018 00:00:00 - 20.08.2018 00:00:00 (BST)Fair Isle, Grande-Bretagne (3008): visibility: 14.08.2018 00:00:00 - 20.08.2018 00:00:00 (BST)Fair Isle, Grande-Bretagne (3008): Quantités de précipitations: 14.08.2018 00:00:00 - 20.08.2018 00:00:00 (BST)
Date & Time tt [°C] td [°C] tt -20cm [°C] tt -100cm [°C] ff [km/h] ff [knt] fx [km/h] fx [knt] dd ppp [hPa] vv [km] rr [mm]
20.08.2018 00:00:00 10,1 8,7 - - 11 6 - - W 1017,1 35 0,0
19.08.2018 23:00:00 10,8 9,4 - - 15 8 - - WNW 1017,0 30 0,0
19.08.2018 22:00:00 11,4 9,8 - - 16 9 - - WNW 1016,9 30 0,0
19.08.2018 21:00:00 11,3 9,7 - - 15 8 - - NW 1016,8 21 0,0
19.08.2018 20:00:00 11,8 9,7 - - 16 9 - - WNW 1016,7 30 0,0
19.08.2018 19:00:00 12,6 9,8 - - 13 7 - - WNW 1016,5 30 0,0
19.08.2018 18:00:00 12,9 9,4 - - 16 9 - - WNW 1016,5 25 0,0
19.08.2018 17:00:00 13,3 9,7 - - 15 8 - - WNW 1016,3 24 0,0
19.08.2018 16:00:00 13,4 9,9 - - 13 7 - - NW 1016,0 30 0,0
19.08.2018 15:00:00 13,3 8,9 - - 15 8 - - NW 1015,9 28 0,0
19.08.2018 14:00:00 12,8 8,2 - - 11 6 - - NW 1015,7 30 0,0
19.08.2018 13:00:00 12,8 8,0 - - 13 7 - - NW 1015,4 35 0,0
19.08.2018 12:00:00 13,2 8,2 - - 11 6 - - WNW 1015,0 35 0,0
19.08.2018 11:00:00 12,6 7,6 - - 9 5 - - NW 1014,9 40 0,0
19.08.2018 10:00:00 12,4 7,8 14,2 13,2 8 4 - - N 1014,6 30 0,0
19.08.2018 09:00:00 11,8 8,2 - - 9 5 - - NNW 1014,3 30 0,0
19.08.2018 08:00:00 11,7 8,3 - - 9 5 - - NNW 1013,7 30 0,0
19.08.2018 07:00:00 10,8 8,5 - - 9 5 - - NNW - 13 0,0
19.08.2018 06:00:00 10,3 8,4 - - 8 4 - - NW - - 0,0
19.08.2018 05:00:00 10,8 9,2 - - 9 5 - - NW - - 0,0
19.08.2018 04:00:00 10,7 9,9 - - 13 7 - - WNW 1013,0 12 0,0
19.08.2018 03:00:00 10,7 9,7 - - 11 6 - - WNW 1012,7 11 0,0
19.08.2018 02:00:00 11,4 10,2 - - 11 6 - - WNW 1012,3 12 0,0
19.08.2018 01:00:00 11,6 11,1 - - 9 5 - - W 1011,9 11 0,0
19.08.2018 00:00:00 11,7 11,3 - - 15 8 - - W 1011,5 9 0,0
18.08.2018 23:00:00 11,5 11,0 - - 15 8 - - W 1011,0 11 0,2
18.08.2018 22:00:00 11,8 11,0 - - 18 10 - - W 1010,3 11 0,0
18.08.2018 21:00:00 11,8 10,8 - - 29 16 - - W 1009,3 14 0,0
18.08.2018 20:00:00 12,0 11,0 - - 34 18 55 30 WSW 1008,8 9 0,0
18.08.2018 19:00:00 12,3 11,1 - - 39 21 55 30 WSW 1007,8 8 0,0
18.08.2018 18:00:00 12,8 11,4 - - 37 20 55 30 WSW 1006,7 7 0,2
18.08.2018 17:00:00 12,9 11,4 - - 41 22 59 32 WSW 1005,8 5 0,0
18.08.2018 16:00:00 12,3 11,5 - - 46 25 70 38 WSW 1004,8 8 0,2
18.08.2018 15:00:00 13,2 11,4 - - 52 28 76 41 WSW 1003,6 6 0,0
18.08.2018 14:00:00 12,9 11,0 - - 54 29 87 47 WSW 1003,1 9 0,0
18.08.2018 13:00:00 13,8 10,3 - - 65 35 87 47 WSW 1002,3 13 0,0
18.08.2018 12:00:00 13,3 10,2 - - 52 28 74 40 SW 1001,8 13 0,0
18.08.2018 11:00:00 12,9 10,8 - - 48 26 89 48 SW 1001,5 10 0,2
18.08.2018 10:00:00 12,4 10,6 14,4 13,2 50 27 70 38 SW 1001,1 9 1,2
18.08.2018 09:00:00 11,4 10,6 - - 46 25 80 43 WSW 1001,2 4,0 0,2
18.08.2018 08:00:00 12,3 11,1 - - 37 20 55 30 SW 1000,9 10 0,2
18.08.2018 07:00:00 12,1 11,0 - - 34 18 59 32 SSW - 13 0,4
18.08.2018 06:00:00 12,4 10,7 - - 31 17 59 32 SSW - - 0,0
18.08.2018 05:00:00 12,1 10,8 - - 37 20 63 34 SW - - 0,2
18.08.2018 04:00:00 12,4 10,5 - - 34 18 70 38 SW - - 0,0
18.08.2018 03:00:00 12,1 10,6 - - 44 24 74 40 SW 1002,0 22 0,0
18.08.2018 02:00:00 12,7 10,7 - - 44 24 59 32 WSW 1001,6 13 0,0
18.08.2018 01:00:00 12,8 10,8 - - 42 23 61 33 SW 1001,5 14 0,0
18.08.2018 00:00:00 12,8 11,3 - - 39 21 54 29 WSW 1001,8 16 0,0
17.08.2018 23:00:00 12,4 12,2 - - 35 19 50 27 SW 1001,8 5 0,2
17.08.2018 22:00:00 13,0 12,3 - - 35 19 54 29 SSW 1001,7 13 0,0
17.08.2018 21:00:00 13,1 11,9 - - 37 20 50 27 S 1001,8 13 0,0
17.08.2018 20:00:00 13,2 11,4 - - 34 18 46 25 S 1002,5 18 0,0
17.08.2018 19:00:00 13,3 11,5 - - 34 18 46 25 S 1002,8 15 0,0
17.08.2018 18:00:00 13,2 11,3 - - 24 13 - - SSE 1003,6 19 0,0
17.08.2018 17:00:00 13,3 10,6 - - 28 15 - - S 1004,6 24 0,0
17.08.2018 16:00:00 13,0 10,9 - - 28 15 - - S 1005,3 29 0,0
17.08.2018 15:00:00 13,7 11,4 - - 31 17 - - SSW 1005,8 19 0,0
17.08.2018 14:00:00 14,8 12,3 - - 28 15 - - S 1005,9 21 0,0
17.08.2018 13:00:00 14,2 11,9 - - 24 13 - - SSW 1006,1 23 0,0
17.08.2018 12:00:00 14,4 12,0 - - 29 16 - - SSW 1005,9 19 0,0
17.08.2018 11:00:00 13,7 11,8 - - 28 15 - - SW 1005,9 16 0,0
17.08.2018 10:00:00 13,2 11,4 14,5 13,2 28 15 - - SW 1005,7 15 0,0
17.08.2018 09:00:00 12,2 10,5 - - 29 16 48 26 SW 1005,4 20 0,0
17.08.2018 08:00:00 12,2 10,0 - - 37 20 48 26 SW 1004,9 24 0,0
17.08.2018 07:00:00 11,9 10,1 - - 37 20 48 26 SW - 20 0,0
17.08.2018 06:00:00 11,6 10,3 - - 29 16 54 29 SW - - 0,0
17.08.2018 05:00:00 11,8 10,0 - - 37 20 50 27 SW - - 0,0
17.08.2018 04:00:00 11,6 10,6 - - 31 17 48 26 SW - - 0,0
17.08.2018 03:00:00 11,8 10,3 - - 39 21 50 27 WSW 1003,5 20 0,0
17.08.2018 02:00:00 11,8 11,1 - - 24 13 - - SW 1003,4 12 0,0
17.08.2018 01:00:00 11,7 10,8 - - 26 14 - - SW 1003,3 13 0,0
17.08.2018 00:00:00 12,0 11,3 - - 31 17 - - SW 1003,1 15 1,2
16.08.2018 23:00:00 12,4 11,3 - - 28 15 - - SW 1002,8 11 0,0
16.08.2018 22:00:00 12,0 10,9 - - 18 10 - - SSW 1002,6 15 0,0
16.08.2018 21:00:00 12,2 10,5 - - 24 13 - - WSW 1002,2 15 0,0
16.08.2018 20:00:00 12,6 10,4 - - 28 15 - - SW 1001,9 17 0,0
16.08.2018 19:00:00 13,2 10,9 - - 24 13 - - SW 1001,5 30 0,0
16.08.2018 18:00:00 13,6 10,8 - - 28 15 - - WSW 1001,3 18 0,0
16.08.2018 17:00:00 13,3 11,7 - - 21 11 - - SW 1001,3 15 0,4
16.08.2018 16:00:00 13,2 11,4 - - 21 11 - - S 1000,9 20 0,0
16.08.2018 15:00:00 13,9 12,0 - - 22 12 - - S 1000,7 16 0,0
16.08.2018 14:00:00 14,7 12,5 - - 24 13 - - S 1000,8 11 0,0
16.08.2018 13:00:00 14,3 12,0 - - 24 13 - - SSW 1000,8 13 0,0
16.08.2018 12:00:00 14,9 13,2 - - 22 12 - - SSW 1000,7 11 0,0
16.08.2018 11:00:00 13,9 12,4 - - 22 12 - - S 1000,8 15 0,0
16.08.2018 10:00:00 14,0 11,9 14,7 13,2 21 11 - - S 1000,7 20 0,0
16.08.2018 09:00:00 13,4 10,7 - - 22 12 - - S 1000,9 14 0,0
16.08.2018 08:00:00 12,6 10,4 - - 18 10 - - S 1000,8 20 0,0
16.08.2018 07:00:00 11,6 10,5 - - 16 9 - - S 1000,8 19 0,0
16.08.2018 06:00:00 10,4 9,1 - - 11 6 - - S 1000,8 18 0,0
16.08.2018 05:00:00 11,3 10,4 - - 16 9 - - S 1000,8 16 0,0
16.08.2018 04:00:00 11,1 10,4 - - 16 9 - - S 1001,1 12 0,0
16.08.2018 03:00:00 11,2 10,5 - - 15 8 - - SSW 1001,1 11 0,0
16.08.2018 02:00:00 11,7 10,6 - - 21 11 - - SW 1001,1 12 0,0
16.08.2018 01:00:00 12,1 10,8 - - 31 17 50 27 WSW 1001,2 18 0,0
16.08.2018 00:00:00 12,6 11,3 - - 29 16 46 25 SW 1000,9 29 0,0
15.08.2018 23:00:00 13,3 11,2 - - 29 16 - - SSW 1000,7 18 0,0
15.08.2018 22:00:00 13,2 11,1 - - 28 15 - - SSW 1000,6 22 0,0
15.08.2018 21:00:00 12,2 11,5 - - 16 9 - - S 1000,9 28 0,0
15.08.2018 20:00:00 12,5 12,5 - - 18 10 - - SSW 1001,1 35 0,2
15.08.2018 19:00:00 12,0 12,0 - - 11 6 - - SE 1001,4 0,3 0,6
15.08.2018 18:00:00 12,2 12,1 - - 8 4 - - S 1002,1 8 2,4
15.08.2018 17:00:00 12,5 12,2 - - 11 6 - - W 1002,4 5 3,6
15.08.2018 16:00:00 12,8 12,6 - - 15 8 - - WSW 1002,9 4,8 2,4
15.08.2018 15:00:00 13,8 13,0 - - 13 7 - - S 1003,3 15 0,0
15.08.2018 14:00:00 15,2 14,5 - - 18 10 - - S 1003,4 19 0,0
15.08.2018 13:00:00 14,5 13,7 - - 22 12 - - S 1003,7 21 0,0
15.08.2018 12:00:00 14,3 13,4 - - 24 13 - - S 1003,8 23 0,0
15.08.2018 11:00:00 13,8 12,9 - - 21 11 - - S 1004,4 35 0,0
15.08.2018 10:00:00 14,4 13,0 14,7 13,2 22 12 - - S 1004,4 29 0,0
15.08.2018 09:00:00 13,3 12,5 - - 22 12 - - S 1004,6 29 0,0
15.08.2018 08:00:00 12,8 11,7 - - 24 13 - - S 1004,6 25 0,0
15.08.2018 07:00:00 12,2 12,0 - - 18 10 - - S - 20 0,0
15.08.2018 06:00:00 12,1 10,9 - - 22 12 - - SW - - 0,0
15.08.2018 05:00:00 12,2 11,8 - - 21 11 - - SW - - 0,0
15.08.2018 04:00:00 12,3 12,3 - - 21 11 - - WSW - - 0,0
15.08.2018 03:00:00 12,6 12,6 - - 26 14 - - WSW - - 0,0
15.08.2018 02:00:00 12,8 12,8 - - 29 16 - - WSW 1005,2 12 0,0
15.08.2018 01:00:00 12,7 12,7 - - 21 11 - - WSW 1005,6 2,5 0,0
15.08.2018 00:00:00 13,2 13,2 - - 26 14 - - WSW 1005,7 10 0,0
14.08.2018 23:00:00 13,0 13,0 - - 18 10 - - SSW 1005,6 14 0,0
14.08.2018 22:00:00 12,9 12,9 - - 24 13 - - S 1005,8 0,6 0,0
14.08.2018 21:00:00 12,9 12,9 - - 21 11 - - S 1006,1 0,4 0,2
14.08.2018 20:00:00 12,9 12,9 - - 15 8 - - S 1006,1 7 0,0
14.08.2018 19:00:00 13,1 13,1 - - 15 8 - - S 1006,3 1,2 0,2
14.08.2018 18:00:00 13,0 13,0 - - 16 9 - - S 1006,6 5 0,2
14.08.2018 17:00:00 13,4 13,1 - - 11 6 - - SSE 1006,5 6 0,2
14.08.2018 16:00:00 14,3 14,1 - - 11 6 - - SW 1006,9 30 0,0
14.08.2018 15:00:00 13,7 13,7 - - 15 8 - - SW 1007,2 12 0,0
14.08.2018 14:00:00 13,1 13,1 - - 15 8 - - SSW 1007,3 0,2 0,4
14.08.2018 13:00:00 13,2 13,2 - - 13 7 - - SSW 1007,3 0,1 0,0
14.08.2018 12:00:00 13,2 13,2 - - 13 7 - - SSW 1007,4 0,1 0,4
14.08.2018 11:00:00 12,7 12,7 - - 5 3 - - SE 1007,4 0,1 0,2
14.08.2018 10:00:00 12,7 12,7 14,7 13,2 9 5 - - S 1007,7 4,0 0,2
14.08.2018 09:00:00 12,6 12,6 - - 9 5 - - SSE 1007,8 10 0,0
14.08.2018 08:00:00 12,7 12,3 - - 9 5 - - S 1007,9 6 0,2
14.08.2018 07:00:00 12,7 12,0 - - 8 4 - - SE 1008,2 35 0,0
14.08.2018 06:00:00 12,7 11,4 - - 13 7 - - SSE 1008,2 50 0,0
14.08.2018 05:00:00 12,5 11,2 - - 11 6 - - SSE 1008,4 45 0,0
14.08.2018 04:00:00 12,7 10,9 - - 8 4 - - SE 1008,8 50 0,0
14.08.2018 03:00:00 12,7 10,8 - - 8 4 - - SSE 1009,1 45 0,0
14.08.2018 02:00:00 12,8 10,8 - - 5 3 - - SE 1009,4 40 0,0
14.08.2018 01:00:00 12,6 10,2 - - 5 3 - - SE 1009,5 45 0,0
14.08.2018 00:00:00 12,4 9,7 - - 4 2 - - ESE 1009,5 50 0,0

tt = Température de l'air
td = dewpoint
tt -20cm = Température de l'air -20cm
tt -100cm = Température de l'air -100cm
ff = Vitesse du vent
fx = gusts
dd = Direction du vent
ppp = reduced air pressure
vv = visibility
rr = Quantités de précipitations

stations d'obs. à proximité